Location: C?l?m?re?ti
(46.1333°N, 22.7833°E)
Time: 00:37:35
(UTC+00:00)

Daily predictions for brighter satellites

Satellite Brightness Start Highest point End
(mag) Time Altitude Azimuth Time Altitude Azimuth Time Altitude Azimuth
Cosmos 2263 Rocket 4.3 02:04:25 17° SE 02:07:02 23° E 02:11:25 10° NE
ATLAS 3B R/B 4.3 02:12:27 24° N 02:13:43 25° NNE 02:19:23 10° E
NOSS 3-2 (C) 4.2 02:33:03 54° N 02:34:48 69° NE 02:43:15 10° SE
Cosmos 1943 4.2 02:35:21 40° NNE 02:36:19 43° NE 02:41:44 10° SE
Nadezhda 1 Rocket 4.0 02:44:09 76° NNE 02:44:39 83° E 02:50:57 10° S
CENTAUR R/B 3.2 02:45:10 47° NNW 02:47:58 79° NE 02:56:51 10° SE
Cosmos 2227 Rocket 4.1 02:58:27 17° N 02:58:27 17° N 03:00:02 10° N
Cosmos 1538 Rocket 4.3 02:54:50 60° NNE 02:55:22 64° ENE 03:00:36 10° SSE
Cosmos 2084 4.5 02:56:34 46° ESE 02:56:34 46° ESE 02:59:53 10° SE
ATLAS 2AS CENTAUR R/B 4.2 02:48:41 10° S 02:55:57 41° ESE 03:03:12 10° NE
SL-4 R/B 3.7 02:58:04 28° ENE 02:58:04 28° ENE 02:59:56 10° ENE
Meteor 1-31 Rocket 4.2 02:56:31 10° NNE 03:04:22 - S 02:59:54 37° E
Cosmos 489 Rocket 4.4 03:00:34 46° NNW 03:02:37 84° ENE 03:08:57 10° SSE
ARGOS Delta rocket 4.1 02:58:03 10° NNE 03:03:18 75° E 03:08:13 10° S
NOSS 3-2 (A) 4.0 03:03:00 57° W 03:04:21 65° WSW 03:12:45 10° SSE
deb Chang Zheng 4 4.5 03:05:21 10° NNE 03:09:33 48° E 03:13:45 10° S
Gbstr 26 Del rocket 4.0 03:14:20 35° NE 03:14:20 35° NE 03:17:08 10° E
USA 238 DEB 3.9 03:18:26 49° WNW 03:20:01 58° WSW 03:27:21 10° SSE
USA 238 3.9 03:18:30 48° WNW 03:20:07 58° WSW 03:27:27 10° SSE
USA 307 4.1 03:21:20 32° NNE 03:21:20 32° NNE 03:24:27 10° NE
Cosmos 1633 3.4 03:18:24 10° S 03:21:48 49° E 03:25:14 10° NNE
SKYMED 2 4.1 03:18:19 10° SSE 03:22:35 57° ENE 03:25:15 22° N
METEOR-M 4.1 03:17:30 10° NNE 03:22:53 83° ESE 03:28:13 10° SSW
Lacrosse 4 Rocket 2.1 03:22:25 41° N 03:23:29 52° NE 03:27:44 10° SE
Cosmos 1745 Rocket 4.0 03:22:53 30° SW 03:25:50 55° WNW 03:32:05 10° N
USA 308 4.0 03:27:19 32° N 03:27:19 32° N 03:30:40 10° NE
SAR-Lupe-4 3.8 03:26:01 10° SSE 03:29:32 68° ENE 03:29:40 67° ENE
Cosmos 1184 Rocket 3.8 03:26:53 10° S 03:30:02 46° E 03:33:13 10° NNE
Cosmos 2297 Rocket 4.2 03:32:24 14° NNW 03:32:24 14° NNW 03:33:46 10° N
Cosmos 1461 3.0 03:33:13 64° WNW 03:33:52 77° WSW 03:38:24 10° SSE
CZ-4B R/B 3.7 03:33:02 10° NNE 03:37:31 59° E 03:41:53 10° S
CZ-4C R/B 3.7 03:33:12 10° S 03:37:34 34° ESE 03:42:37 10° NE
Cosmos 1151 Rocket 3.0 03:35:40 23° N 03:38:18 81° E 03:42:34 10° S
ALOS 2.3 03:35:17 10° N 03:39:52 54° WNW 03:40:32 49° WSW
Cosmos 2181 Rocket 4.0 03:35:30 10° N 03:41:46 86° E 03:47:55 10° S
Cosmos 1689 Rocket 2.4 03:41:53 10° SSE 03:44:28 62° ESE 03:44:28 62° ESE
CRYOSAT 2 4.3 03:40:42 10° S 03:45:34 90° E 03:50:28 10° N
H-2A R/B 4.3 03:42:17 10° NNE 03:45:57 37° E 03:49:35 10° SSE
SAR-Lupe-1 3.9 03:43:04 10° S 03:46:38 79° WSW 03:47:16 58° NNW
Cosmos 1328 Rocket 3.5 03:44:55 14° N 03:48:45 90° W 03:53:11 10° S
Lacrosse 5 2.6 03:44:04 10° SSW 03:48:59 54° SE 03:53:56 10° ENE
Cosmos 2263 Rocket 2.2 03:46:17 18° SW 03:50:30 59° WNW 03:56:09 10° NNE
ERS-2 3.9 03:47:19 10° SSW 03:48:39 20° SSW 03:48:39 20° SSW
Cosmos 1709 Rocket 4.0 03:45:10 10° SSW 03:51:26 61° WNW 03:57:48 10° N
ERBS 3.3 03:52:13 33° N 03:52:13 33° N 03:54:37 10° NE
Meteor 2-3 Rocket 3.7 03:50:03 10° SSW 03:55:45 80° W 04:01:35 10° N
USA 305 4.0 03:56:32 28° NNW 03:57:19 30° N 04:01:09 10° NE
PSLV R/B 3.8 03:54:23 10° S 03:58:32 80° WSW 04:02:08 14° NNW
Meteor PRIRODA 3.5 03:57:16 10° NNE 04:01:01 87° WNW 04:04:45 10° SSW
Cosmos 923 Rocket 3.9 03:56:39 15° NNW 04:01:03 81° WSW 04:06:22 10° SSE
SJ 16-02 1.2 03:56:59 10° SSW 04:01:23 74° WNW 04:05:50 10° NNE
Okean 3 Rocket 3.6 03:58:19 10° SSW 04:02:35 50° WNW 04:06:53 10° N
Cosmos 1766 Rocket 3.7 04:00:08 10° SSW 04:04:30 52° WNW 04:08:54 10° N
ATLAS 3B R/B 3.0 03:59:42 15° NW 04:05:36 71° NE 04:12:47 10° SE
USA 306 4.1 04:04:26 25° NW 04:05:38 29° N 04:09:25 10° NE
Cosmos 1743 Rocket 4.5 04:04:42 10° S 04:09:00 52° E 04:13:22 10° NNE
EO 1 Delta rocket 4.1 04:03:57 10° SSE 04:09:14 78° ENE 04:13:54 10° N
CZ-2C R/B 4.3 04:05:07 10° SE 04:10:00 34° ENE 04:14:49 10° N
COSMO-SKYMED 1 2.8 04:06:29 10° S 04:10:38 45° W 04:13:49 16° NNW
Cosmos 1603 4.3 04:08:23 25° WNW 04:10:39 34° WSW 04:15:40 10° S
SJ-12 4.0 04:07:12 10° N 04:11:07 47° WNW 04:15:01 10° SW
FENGYUN 3A 4.3 04:06:51 10° N 04:11:39 33° WNW 04:16:25 10° SW
Cosmos 990 Rocket 4.2 04:07:53 10° SSW 04:13:06 75° ESE 04:18:22 10° NNE
Cosmos 1408 Rocket 3.5 04:08:59 10° SSW 04:13:27 75° W 04:17:56 10° N
EXPRESS MD2 4.1 04:16:59 26° WNW 04:19:01 56° N 04:25:47 10° E
ADEOS 4.2 04:14:47 10° N 04:19:21 31° WNW 04:23:53 10° SW
Cosmos 2074 Rocket 4.0 04:13:39 10° S 04:19:52 90° ESE 04:26:07 10° N
Cosmos 1943 3.9 04:17:13 20° WNW 04:20:14 33° WSW 04:25:15 10° SSW
Cosmos 1933 4.4 04:21:48 23° WNW 04:22:40 25° W 04:26:03 10° SW
PSLV R/B 3.8 04:19:34 10° NNE 04:23:30 80° E 04:27:18 10° S
MOS 1 Rocket 3.3 04:21:40 10° S 04:26:23 81° WSW 04:31:27 10° NNW
ATLAS CENTAUR R/B 1.9 04:23:42 13° NNW 04:26:55 50° NE 04:30:43 10° SE
NOSS 3-4 (A) 3.5 04:21:05 10° WSW 04:26:55 56° NW 04:33:12 10° NE
NOSS 3-4 (C) 3.5 04:21:12 10° WSW 04:27:02 56° NW 04:33:20 10° NE
BREEZE M DEB (TANK) 4.0 04:20:25 10° SW 04:28:37 43° SSE 04:31:33 10° E
Cosmos 1680 Rocket 3.6 04:24:54 10° NNW 04:30:10 61° WSW 04:35:23 10° S
NOAA 6 4.4 04:25:05 10° NNE 04:30:13 70° ESE 04:35:18 10° S
Cosmos 2344 4.5 04:22:25 10° NW 04:31:56 85° SW 04:45:19 10° SSE
Meteor 1-4 Rocket 3.5 04:31:52 20° WNW 04:33:05 25° W 04:35:57 10° SSW
Cosmos 2184 Rocket 4.0 04:27:33 10° SSW 04:33:51 75° W 04:40:15 10° N
SMAP 4.2 04:29:36 10° NNE 04:34:08 49° E 04:38:38 10° S
Meteor 1-31 Rocket 4.1 04:31:32 10° NNW 04:34:17 19° WNW 04:35:13 17° W
Cosmos 1782 3.4 04:32:14 10° NNW 04:35:56 36° W 04:39:38 10° SSW
SL-4 R/B 2.6 04:33:39 19° WNW 04:35:58 37° N 04:39:25 10° ENE
FALCON 9 DEB 3.5 04:34:18 10° SW 04:37:27 60° SE 04:40:39 10° ENE
USA 234 3.4 04:31:18 10° NE 04:37:51 79° SE 04:44:25 10° SW
H-2A R/B 2.4 04:34:02 10° NNE 04:37:56 79° ESE 04:41:45 10° S
RESURS DK-1 2.4 04:34:07 10° SSW 04:38:16 86° ESE 04:42:29 10° NNE
CENTAUR R/B 4.0 04:32:23 14° WNW 04:38:19 32° WSW 04:45:47 10° S
FALCON 9 DEB 3.3 04:36:54 10° SW 04:40:05 67° SE 04:43:18 10° ENE
Cosmos 158 Rocket 4.5 04:37:07 11° NW 04:41:25 35° WSW 04:45:54 10° SSW
Cosmos 2228 Rocket 3.0 04:38:48 10° N 04:43:16 85° W 04:47:39 10° S
Genesis I 3.4 04:40:42 10° SSW 04:44:30 72° ESE 04:48:20 10° NE
Atlas Centaur 2 4.4 04:42:33 10° SSW 04:44:52 13° S 04:47:01 10° SSE
SJ-7 4.5 04:42:45 10° N 04:46:42 55° WNW 04:50:41 10° SSW
ATLAS 2AS CENTAUR R/B 3.1 04:38:56 10° SW 04:46:47 60° NW 04:54:32 10° NE
Cosmos 405 Rocket 2.5 04:43:08 10° S 04:46:49 87° W 04:50:34 10° N
Cosmos 2112 Rocket 4.3 04:43:44 10° NNW 04:48:53 49° WSW 04:54:00 10° S
Cosmos 1812 2.7 04:50:31 10° NNW 04:54:19 60° W 04:58:05 10° S
Geosat 4.3 04:49:42 10° SE 04:54:42 73° ENE 04:59:43 10° NNW
Cosmos 1633 4.4 04:55:35 10° W 04:56:55 12° WNW 04:58:15 10° NW
Cosmos 1515 Rocket 4.5 04:55:45 10° NNW 04:59:34 28° W 05:03:23 10° SSW
FALCON 9 DEB 2.9 04:56:23 10° WSW 04:59:36 89° NNW 05:02:50 10° ENE
Gbstr 26 Del rocket 2.9 04:56:52 11° WNW 05:00:26 63° SSW 05:04:29 10° SE
USA 307 4.2 04:57:31 10° NW 05:01:20 29° N 05:05:08 10° ENE
Lacrosse 4 Rocket 3.0 04:58:46 10° WNW 05:01:48 19° WSW 05:04:54 10° SSW
EP 3 3.8 05:00:16 10° SSW 05:02:19 69° SE 05:04:13 10° NE
Cosmos 1898 Rocket 3.7 04:57:15 10° SW 05:02:24 50° WNW 05:07:37 10° NNE
Meteor 2-6 Rocket 4.4 05:00:13 10° NNW 05:05:21 45° W 05:10:28 10° SSW
USA 308 4.1 05:03:47 10° NW 05:07:35 29° N 05:11:24 10° ENE
YAOGAN 6 3.0 05:04:32 10° N 05:07:49 36° WNW 05:11:02 10° SW
PAYLOAD B 4.2 05:03:19 10° N 05:08:48 68° WNW 05:14:15 10° SSW
Cosmos 1437 Rocket 2.6 05:06:15 10° NNW 05:10:03 70° W 05:13:48 10° S
Cosmos 1844 Rocket 2.7 05:04:40 10° SW 05:10:16 62° WNW 05:15:55 10° NNE
Envisat 3.2 05:05:22 10° N 05:10:16 49° WNW 05:15:09 10° SW
CZ-4B DEB 4.3 05:05:23 10° N 05:10:42 54° WNW 05:16:00 10° SW
DMSP B5D2-2 4.2 05:06:58 10° SSE 05:12:12 84° ENE 05:17:27 10° NNW
BREEZE-M DEB (TANK) 3.9 05:10:03 10° WSW 05:14:04 85° SSE 05:29:26 10° ENE
CZ-4 R/B 4.2 05:10:45 10° NE 05:14:12 24° E 05:17:38 10° SSE
Cosmos 1844 3.6 05:08:41 10° SW 05:14:13 71° WNW 05:19:48 10° NNE
Okean O Rocket 1.6 05:11:03 10° N 05:15:29 75° WNW 05:19:56 10° SSW
Cosmos 1707 Rocket 3.7 05:11:45 10° N 05:16:08 82° E 05:20:27 10° S
AQUARIUS 4.1 05:12:05 10° N 05:16:34 72° WNW 05:21:02 10° SSW
Nadezhda 3 Rocket 4.2 05:10:57 10° NNW 05:17:03 52° W 05:23:04 10° SSW
